DECAYED

SL-16 DEB, 22357 (Decayed)

Orbit data source: Space-Track

SL-16 DEB, 22357 was space debris in LEO originally from a launch on Fri, 25 Dec 1992 UTC launched from the Tyuratam Missile And Space Complex (TTMTR). Debris objects in space refer to the collection of defunct objects orbiting the Earth. Examples of debris include non-operational satellites, rocket bodies, and fragments generated from explosions, collisions, or faulty payload assembly.

Not visible in the next 10 days
Identifier
22357, 1992-093AW
Orbit
Decayed
Country
Flag of CISCIS
Related business
Manufacturer
Unknown
Mission
Decayed spacecraft
Bus & Motor
Unknown
Mass
Unknown
Launch date (UTC)
1992-12-25 (33 years ago)
Launch vehicle
Unknown
Launch site
Tyuratam Missile And Space Complex (TTMTR)
Object type
Payload
Rocket body
Debris
Shape & HBR
Unknown shape, 0.1 m
Radar Cross Section
Small (<0.1 m²)

Expand to show TLE details & history
Last TLE update: 4 months ago

TLE from 4 months ago
0 SL-16 DEB
1 22357U 92093AW  26011.92128769  .16205215  38343-5  40420-2 0  9996
2 22357  70.8109 250.0465 0007156 205.3718 154.7163 16.28813694747051
Epoch: 2026-01-11T22:06Z
TLE epoch observation values (Epoch: 2026-01-11T22:06:39.256Z)
Latitude
-0.00006°
Longitude
166.95752°
Altitude
202.607 km
Speed
7.783 km/s
True Right ascension
16h 40m 11s
True Declination
0° 00' 00"
Sunlit
Object was in daylight at epoch
Visualization orbit readout
Latitude
Unknown
Longitude
Unknown
Altitude
Unknown
Speed
Unknown
Apparent Right ascension
Unknown
Apparent Declination
Unknown
Sunlit
N/A
Visualization observer readout
Local Sidereal Time
23:18:06
Azimuth
Unknown
Elevation
Unknown
Doppler factor
Unknown
Orbital elements
Apogee altitude
198.173 km
Perigee altitude
188.768 km
Semi-major axis
6,571.607 km
Eccentricity
0.00072
Inclination
70.8109°
RAAN
250.0465°
Arg. of periapsis
205.3718°
True anomaly
154.75129°
Mean anomaly
154.7163°
Eccentric anomaly
154.7338°
Mean motion
4.07414 °/min
Orbital period
88.36 mins
BSTAR
0.004042
Loading maneuver chart data...
Computing Atmospheric mass density...
Loading historical data...
Loading historical data...
Loading historical data...
Loading historical data...
Loading historical data...
Loading historical data...
Loading historical data...

Documentation

Showing up to 5 results
|